Flag for USA

Past Weather in Alexandria, Louisiana, USA — Yesterday and Last 2 Weeks

Now
77 °F

Fog.


Feels Like: 78 °F
Forecast: 93 / 74 °F
Wind: No wind

Location: Alexandria International Airport

Current Time: Jul 10, 2020 at 8:26:32 am

Latest Report: Jul 10, 2020 at 6:53 am


Visibility: 4 mi

Pressure: 30.02 "Hg

Humidity: 94%

Dew Point: 75 °F

Location of AlexandriaLocation

Past Weather in Alexandria — Graph

°F

Alexandria Temperature Yesterday

Maximum temperature yesterday: 93 °F (at 3:53 pm)
Minimum temperature yesterday: 76 °F (at 3:01 am)
Average temperature yesterday: 84 °F

High & Low Weather Summary for the Past Weeks

 TemperatureHumidityPressure
High93 °F (Jul 2, 3:53 pm)100% (Jul 4, 1:53 am)30.15 "Hg (Jul 4, 1:53 am)
Low69 °F (Jul 4, 12:24 am)50% (Jul 2, 3:53 pm)29.82 "Hg (Jul 5, 6:53 pm)
Average80 °F85%29.96 "Hg
* Reported Jun 25 6:27 am — Jul 10 6:53 am, Alexandria. Weather by CustomWeather, © 2020

Note: Actual official high and low records may vary slightly from our data, if they occured in-between our weather recording intervals... More about our weather records

Alexandria Weather History for the Previous 24 Hours

Scroll right to see more
 ConditionsComfort  
Time TempWeatherWind HumidityBarometerVisibility
6:53 am
Fri, Jul 10
77 °FFog.No wind94%30.02 "Hg4 mi
5:53 am78 °FFog.No wind90%30.00 "Hg6 mi
4:53 am78 °FClear.No wind90%29.98 "Hg7 mi
3:53 am78 °FClear.No wind90%29.96 "Hg7 mi
2:53 am78 °FClear.5 mph90%29.96 "Hg8 mi
1:53 am79 °FClear.3 mph88%29.95 "Hg8 mi
12:53 am80 °FClear.9 mph87%29.94 "Hg8 mi
11:53 pm
Thu, Jul 9
81 °FClear.7 mph82%29.93 "Hg9 mi
10:53 pm82 °FClear.6 mph82%29.92 "Hg9 mi
9:53 pm82 °FPassing clouds.7 mph85%29.92 "Hg9 mi
8:53 pm84 °FClear.7 mph80%29.89 "Hg9 mi
7:53 pm87 °FSunny.10 mph72%29.88 "Hg8 mi
6:53 pm91 °FSunny.5 mph64%29.89 "Hg9 mi
5:53 pm92 °FSunny.3 mph60%29.89 "Hg9 mi
4:53 pm92 °FPassing clouds.7 mph58%29.90 "Hg9 mi
3:53 pm93 °FPassing clouds.6 mph60%29.92 "Hg10 mi
2:53 pm92 °FSunny.7 mph60%29.92 "Hg9 mi
1:53 pm91 °FSunny.3 mph61%29.93 "Hg9 mi
12:53 pm90 °FPassing clouds.8 mph63%29.94 "Hg9 mi
11:53 am88 °FScattered clouds.8 mph70%29.94 "Hg8 mi
10:53 am86 °FScattered clouds.9 mph72%29.95 "Hg8 mi
10:25 am85 °FScattered clouds.7 mph75%29.94 "Hg8 mi
9:53 am84 °FPartly sunny.6 mph80%29.95 "Hg7 mi
8:53 am82 °FPartly sunny.8 mph85%29.96 "Hg6 mi
8:32 am81 °FFog.5 mph88%29.95 "Hg6 mi
Weather by CustomWeather, © 2020

See weather overview